紫金山彗星

C/2017 E2 ( Tsuchinshan )

English version
Home page
Updated on October 8, 2017

---------------------------------------------------------------------

・ プロフィール

発見日 2017年3月1日
発見光度 19.7等
発見者 H. B. Zhao, B. Li, G. Zhaori, R. Q. Hong, L. F. Hu (XuYi(目へんに于、目へんに台) Station, 紫金山天文台)

・ 写真集

・ 軌道要素

Epoch 2016 May 12.0 TT = JDT 2457520.5
T 2016 May 11.98591 TT                                  MPCW
q   2.3523700            (2000.0)            P               Q
n   0.01001924     Peri.   89.40314     -0.02744174     -0.98004669
a  21.3098100      Node    11.56221     -0.21992472     -0.18619365
e   0.8896109      Incl.   79.17315     +0.97513080     -0.06957300
P  98.37
From 134 observations 2017 Mar. 1-May 29, mean residual 0".4.

・ 星図

・ 光度変化

        m1 = 11.0 + 5 logΔ + 10.0 log r

---------------------------------------------------------------------

軌道要素はM.P.E.C. 2017-L52に掲載されたものです。
星図はステラナビゲータ Ver.10 (アストロアーツ) で作成したものです。
光度グラフはComet for Windowsで作成したものです。

---------------------------------------------------------------------

Copyright(C) Seiichi Yoshida (comet@aerith.net). All rights reserved.